Flag for Greece Weather past 2 weeks in Preveza, Greece

Now
64 °F

Passing clouds.


Feels Like: 64 °F
Forecast: 66 / 78 °F
Wind: No wind

Location: Aktion Airport

Current Time: Sep 3, 2014 at 3:53:36 AM

Latest Report: Sep 3, 2014 at 2:50 AM


Visibility: N/A

Pressure: 29.68 "Hg

Humidity: 94%

Dew point: 63 °F

Location of PrevezaLocation

Historic Weather in Preveza — Graph

°F

Preveza temperature yesterday

Maximum temperature yesterday: 79 °F (at 2:20 PM)
Minimum temperature yesterday: 63 °F (at 8:50 AM)
Average temperature yesterday: 71 °F

Past Weeks' High & Low Weather Summary

 TemperatureHumidityPressure
High93 °F (Aug 29, 11:20 AM)94% (Aug 21, 5:50 AM)30.07 "Hg (Aug 21, 5:50 AM)
Low63 °F (Sep 2, 8:50 AM)32% (Aug 29, 11:20 AM)29.62 "Hg (Sep 2, 3:50 AM)
Average78 °F70%29.92 "Hg
* Reported Aug 19 2:50 AM — Sep 3 2:50 AM, Preveza, Weather by CustomWeather, © 2014

Note: Actual official high and low records may vary slightly from our data, if they occured in-between our weather recording intervals... More about our weather records

Advertising

Preveza weather history for previous 24 hours

 ConditionsComfort  
Time TempWeatherWind HumidityBarometerVisibility
2:50 AM
Sep 3
64 °FPassing clouds.No wind94%29.68 "HgN/A
1:50 AM66 °FPassing clouds.No wind88%29.71 "HgN/A
12:50 AM64 °FPassing clouds.10 mph94%29.71 "HgN/A
11:50 PM
Sep 2
66 °FPassing clouds.No wind88%29.68 "HgN/A
10:50 PM66 °FPassing clouds.5 mph94%29.68 "HgN/A
9:50 PM66 °FLight rain. Overcast.5 mph94%29.68 "Hg4 mi
8:50 PM66 °FThunderstorms. Broken clouds.13 mph94%29.68 "Hg4 mi
8:20 PM68 °FThunderstorms. Cloudy.5 mph94%29.65 "Hg4 mi
7:50 PM68 °FRain. Cloudy.9 mph88%29.65 "Hg4 mi
7:20 PM72 °FBroken clouds.6 mph78%29.65 "HgN/A
6:50 PM72 °FBroken clouds.No wind83%29.65 "HgN/A
6:20 PM72 °FBroken clouds.No wind78%29.65 "HgN/A
5:50 PM70 °FLight rain. Cloudy.No wind83%29.65 "HgN/A
5:20 PM70 °FLight rain. Cloudy.No wind83%29.68 "HgN/A
4:50 PM72 °FCloudy.6 mph73%29.68 "HgN/A
4:20 PM68 °FCloudy.10 mph83%29.68 "HgN/A
3:50 PM73 °FThunderstorms. Broken clouds.18 mph78%29.65 "Hg3 mi
3:20 PM77 °FBroken clouds.7 mph65%29.65 "HgN/A
2:50 PM79 °FBroken clouds.6 mph61%29.65 "HgN/A
2:20 PM79 °FBroken clouds.7 mph65%29.65 "HgN/A
1:50 PM73 °FBroken clouds.13 mph83%29.65 "HgN/A
1:20 PM75 °FScattered clouds.13 mph74%29.65 "HgN/A
12:50 PM75 °FScattered clouds.12 mph74%29.68 "HgN/A
12:20 PM75 °FPassing clouds.12 mph69%29.68 "HgN/A
11:50 AM72 °FPartly sunny.12 mph78%29.68 "HgN/A
11:20 AM72 °FBroken clouds.6 mph78%29.68 "HgN/A
10:50 AM68 °FScattered clouds.8 mph83%29.65 "HgN/A
10:20 AM68 °FThunderstorms. Scattered clouds.10 mph83%29.65 "HgN/A
9:50 AM68 °FScattered clouds.8 mph83%29.65 "HgN/A
9:20 AM66 °FLight rain. Broken clouds.9 mph88%29.65 "Hg5 mi
8:50 AM63 °FThunderstorms. Broken clouds.21 mph94%29.65 "Hg5 mi
8:20 AM68 °FThunderstorms. Broken clouds.20 mph94%29.65 "Hg2 mi
7:20 AM70 °FLight rain. Passing clouds.6 mph88%29.62 "Hg6 mi
6:50 AM68 °FThunderstorms. Passing clouds.8 mph94%29.62 "Hg6 mi
6:20 AM68 °FThunderstorms. Passing clouds.10 mph94%29.62 "Hg5 mi
4:50 AM75 °FThunderstorms. Passing clouds.16 mph83%29.65 "Hg6 mi
3:50 AM73 °FThunderstorms. Passing clouds.8 mph89%29.62 "Hg6 mi
3:20 AM73 °FPassing clouds.10 mph89%29.65 "HgN/A
Weather by CustomWeather, © 2014

See weather overviewHow to use our weather pages